Time,TemperatureF,DewpointF,PressureIn,WindDirection,WindDirectionDegrees,WindSpeedMPH,WindSpeedGustMPH,Humidity,HourlyPrecipIn,Conditions,Clouds,dailyrainin,SoftwareType,DateUTC
2013-05-29 00:04:00,55.2,50.8,30.40,North,4,0.0,0.0,85,0.00,CLR,,0.06,WeatherDisplay:10.37,2013-05-28 14:04:00,
2013-05-29 00:09:00,55.1,50.7,30.40,NNW,333,0.0,1.0,85,0.00,CLR,,0.06,WeatherDisplay:10.37,2013-05-28 14:09:00,
2013-05-29 00:14:00,55.0,50.3,30.41,West,270,1.0,2.0,84,0.00,CLR,,0.06,WeatherDisplay:10.37,2013-05-28 14:14:00,
2013-05-29 00:19:00,55.0,50.6,30.40,NNW,340,0.0,2.0,85,0.00,CLR,,0.06,WeatherDisplay:10.37,2013-05-28 14:19:00,
2013-05-29 00:24:00,55.2,50.8,30.40,NNE,18,0.0,0.0,85,0.00,CLR,,0.06,WeatherDisplay:10.37,2013-05-28 14:24:00,
2013-05-29 00:29:00,55.2,50.8,30.40,NNE,22,0.0,2.0,85,0.00,CLR,,0.06,WeatherDisplay:10.37,2013-05-28 14:29:00,
2013-05-29 00:34:00,55.2,50.8,30.40,NNE,15,0.0,2.0,85,0.00,CLR,,0.06,WeatherDisplay:10.37,2013-05-28 14:34:00,
2013-05-29 00:39:00,55.2,50.8,30.40,NNW,341,0.0,0.0,85,0.00,CLR,,0.06,WeatherDisplay:10.37,2013-05-28 14:39:00,
2013-05-29 00:44:00,55.2,50.8,30.40,NW,321,0.0,1.0,85,0.00,CLR,,0.06,WeatherDisplay:10.37,2013-05-28 14:44:00,
2013-05-29 00:49:00,55.2,50.8,30.40,NW,315,0.0,0.0,85,0.00,CLR,,0.06,WeatherDisplay:10.37,2013-05-28 14:49:00,
2013-05-29 00:54:00,55.0,50.9,30.40,NW,315,0.0,0.0,86,0.00,CLR,,0.06,WeatherDisplay:10.37,2013-05-28 14:54:00,
2013-05-29 00:59:00,55.0,50.9,30.40,NW,307,0.0,0.0,86,0.00,CLR,,0.06,WeatherDisplay:10.37,2013-05-28 14:59:00,
2013-05-29 01:04:00,55.0,50.6,30.40,West,261,0.0,0.0,85,0.00,CLR,,0.06,WeatherDisplay:10.37,2013-05-28 15:04:00,
2013-05-29 01:09:00,55.0,50.6,30.40,SSW,211,0.0,1.0,85,0.00,CLR,,0.06,WeatherDisplay:10.37,2013-05-28 15:09:00,
2013-05-29 01:14:00,54.9,50.8,30.40,SSW,202,0.0,0.0,86,0.00,CLR,,0.06,WeatherDisplay:10.37,2013-05-28 15:14:00,
2013-05-29 01:19:00,55.0,50.8,30.39,SSW,202,0.0,0.0,86,0.00,CLR,,0.06,WeatherDisplay:10.37,2013-05-28 15:19:00,
2013-05-29 01:24:00,55.0,50.9,30.39,SSW,202,0.0,0.0,86,0.00,CLR,,0.06,WeatherDisplay:10.37,2013-05-28 15:24:00,
2013-05-29 01:29:00,55.0,50.9,30.40,SSW,206,0.0,1.0,86,0.00,CLR,,0.06,WeatherDisplay:10.37,2013-05-28 15:29:00,
2013-05-29 01:34:00,55.2,51.1,30.39,North,358,0.0,1.0,86,0.00,CLR,,0.06,WeatherDisplay:10.37,2013-05-28 15:34:00,
2013-05-29 01:39:00,55.2,51.1,30.39,North,2,0.0,0.0,86,0.00,CLR,,0.06,WeatherDisplay:10.37,2013-05-28 15:39:00,
2013-05-29 01:49:00,55.2,51.1,30.39,WNW,288,0.0,1.0,86,0.00,CLR,,0.06,WeatherDisplay:10.37,2013-05-28 15:49:00,
2013-05-29 01:54:00,55.0,50.9,30.39,West,261,0.0,2.0,86,0.00,CLR,,0.06,WeatherDisplay:10.37,2013-05-28 15:54:00,
2013-05-29 01:59:00,54.9,50.8,30.39,WSW,255,0.0,2.0,86,0.00,CLR,,0.06,WeatherDisplay:10.37,2013-05-28 15:59:00,
2013-05-29 02:04:00,55.0,51.2,30.39,West,261,0.0,0.0,87,0.00,CLR,,0.06,WeatherDisplay:10.37,2013-05-28 16:04:00,
2013-05-29 02:09:00,55.1,51.3,30.39,West,263,0.0,0.0,87,0.00,CLR,,0.06,WeatherDisplay:10.37,2013-05-28 16:09:00,
2013-05-29 02:14:00,55.2,51.7,30.39,West,264,0.0,0.0,88,0.00,CLR,,0.06,WeatherDisplay:10.37,2013-05-28 16:14:00,
2013-05-29 02:19:00,55.2,51.7,30.39,West,261,0.0,0.0,88,0.00,CLR,,0.06,WeatherDisplay:10.37,2013-05-28 16:19:00,
2013-05-29 02:24:00,55.2,51.7,30.39,SW,227,0.0,0.0,88,0.00,CLR,,0.06,WeatherDisplay:10.37,2013-05-28 16:24:00,
2013-05-29 02:29:00,55.2,51.7,30.39,South,189,0.0,0.0,88,0.00,CLR,,0.06,WeatherDisplay:10.37,2013-05-28 16:29:00,
2013-05-29 02:39:00,55.2,51.7,30.38,South,180,0.0,0.0,88,0.00,CLR,,0.06,WeatherDisplay:10.37,2013-05-28 16:39:00,
2013-05-29 02:49:00,55.2,51.7,30.39,South,180,0.0,0.0,88,0.00,CLR,,0.06,WeatherDisplay:10.37,2013-05-28 16:49:00,
2013-05-29 02:54:00,55.2,51.7,30.38,South,181,0.0,0.0,88,0.00,CLR,,0.06,WeatherDisplay:10.37,2013-05-28 16:54:00,
2013-05-29 02:59:00,55.2,51.7,30.38,South,185,0.0,0.0,88,0.00,CLR,,0.06,WeatherDisplay:10.37,2013-05-28 16:59:00,
2013-05-29 03:04:00,55.2,51.7,30.38,SSW,209,0.0,0.0,88,0.00,CLR,,0.06,WeatherDisplay:10.37,2013-05-28 17:04:00,
2013-05-29 03:09:00,55.2,51.7,30.38,SW,225,0.0,0.0,88,0.00,CLR,,0.06,WeatherDisplay:10.37,2013-05-28 17:09:00,
2013-05-29 03:14:00,55.2,51.7,30.38,SW,225,0.0,1.0,88,0.00,CLR,,0.06,WeatherDisplay:10.37,2013-05-28 17:14:00,
2013-05-29 03:19:00,55.2,51.7,30.38,SW,225,0.0,1.0,88,0.00,CLR,,0.06,WeatherDisplay:10.37,2013-05-28 17:19:00,
2013-05-29 03:24:00,55.2,51.7,30.38,SW,234,0.0,0.0,88,0.00,CLR,,0.06,WeatherDisplay:10.37,2013-05-28 17:24:00,
2013-05-29 03:29:00,55.2,51.7,30.38,SW,218,0.0,0.0,88,0.00,CLR,,0.06,WeatherDisplay:10.37,2013-05-28 17:29:00,
2013-05-29 03:34:00,55.2,51.7,30.38,SSW,202,0.0,0.0,88,0.00,CLR,,0.06,WeatherDisplay:10.37,2013-05-28 17:34:00,
2013-05-29 03:39:00,55.2,51.7,30.38,SSW,202,0.0,0.0,88,0.00,CLR,,0.06,WeatherDisplay:10.37,2013-05-28 17:39:00,
2013-05-29 03:44:00,55.2,51.7,30.38,SW,223,0.0,0.0,88,0.00,CLR,,0.06,WeatherDisplay:10.37,2013-05-28 17:44:00,
2013-05-29 03:49:00,55.3,51.8,30.38,NW,306,0.0,0.0,88,0.00,CLR,,0.06,WeatherDisplay:10.37,2013-05-28 17:49:00,
2013-05-29 03:54:00,55.4,51.9,30.38,NNW,338,0.0,0.0,88,0.00,CLR,,0.06,WeatherDisplay:10.37,2013-05-28 17:54:00,
2013-05-29 03:59:00,55.4,51.9,30.38,West,269,0.0,0.0,88,0.00,CLR,,0.06,WeatherDisplay:10.37,2013-05-28 17:59:00,
2013-05-29 04:04:00,55.3,51.9,30.38,SW,225,0.0,0.0,88,0.00,CLR,,0.06,WeatherDisplay:10.37,2013-05-28 18:04:00,
2013-05-29 04:09:00,55.2,51.7,30.38,SW,225,0.0,0.0,88,0.00,CLR,,0.06,WeatherDisplay:10.37,2013-05-28 18:09:00,
2013-05-29 04:14:00,55.4,51.9,30.38,WSW,244,0.0,0.0,88,0.00,CLR,,0.06,WeatherDisplay:10.37,2013-05-28 18:14:00,
2013-05-29 04:19:00,55.6,52.1,30.38,NW,313,0.0,0.0,88,0.00,CLR,,0.06,WeatherDisplay:10.37,2013-05-28 18:19:00,
2013-05-29 04:24:00,55.6,52.1,30.38,NNW,335,0.0,0.0,88,0.00,CLR,,0.06,WeatherDisplay:10.37,2013-05-28 18:24:00,
2013-05-29 04:29:00,55.6,52.4,30.38,WNW,297,0.0,0.0,89,0.00,CLR,,0.06,WeatherDisplay:10.37,2013-05-28 18:29:00,
2013-05-29 04:39:00,55.6,52.1,30.38,NE,54,0.0,0.0,88,0.00,CLR,,0.06,WeatherDisplay:10.37,2013-05-28 18:39:00,
2013-05-29 04:44:00,55.3,51.8,30.38,NE,44,0.0,0.0,88,0.00,CLR,,0.06,WeatherDisplay:10.37,2013-05-28 18:44:00,
2013-05-29 04:49:00,55.2,51.7,30.38,NNW,336,0.0,1.0,88,0.00,CLR,,0.06,WeatherDisplay:10.37,2013-05-28 18:49:00,
2013-05-29 04:54:00,55.2,51.7,30.39,West,280,0.0,0.0,88,0.00,CLR,,0.06,WeatherDisplay:10.37,2013-05-28 18:54:00,
2013-05-29 04:59:00,55.2,52.0,30.39,NW,308,1.0,1.0,89,0.00,CLR,,0.06,WeatherDisplay:10.37,2013-05-28 18:59:00,
2013-05-29 05:04:00,55.2,52.0,30.39,NNW,341,0.0,1.0,89,0.00,CLR,,0.06,WeatherDisplay:10.37,2013-05-28 19:04:00,
2013-05-29 05:09:00,55.2,52.0,30.39,ENE,68,0.0,0.0,89,0.00,CLR,,0.06,WeatherDisplay:10.37,2013-05-28 19:09:00,
2013-05-29 05:14:00,55.0,51.5,30.39,ENE,57,0.0,1.0,88,0.00,CLR,,0.06,WeatherDisplay:10.37,2013-05-28 19:14:00,
2013-05-29 05:19:00,54.9,51.4,30.39,WNW,292,0.0,0.0,88,0.00,CLR,,0.06,WeatherDisplay:10.37,2013-05-28 19:19:00,
2013-05-29 05:24:00,55.0,51.9,30.39,West,270,0.0,0.0,89,0.00,CLR,,0.06,WeatherDisplay:10.37,2013-05-28 19:24:00,
2013-05-29 05:29:00,54.9,51.7,30.39,West,270,0.0,0.0,89,0.00,CLR,,0.06,WeatherDisplay:10.37,2013-05-28 19:29:00,
2013-05-29 05:34:00,54.8,51.6,30.39,West,270,0.0,0.0,89,0.00,CLR,,0.06,WeatherDisplay:10.37,2013-05-28 19:34:00,
2013-05-29 05:39:00,54.7,51.5,30.40,West,270,0.0,0.0,89,0.00,CLR,,0.06,WeatherDisplay:10.37,2013-05-28 19:39:00,
2013-05-29 05:44:00,54.7,51.2,30.40,West,261,0.0,0.0,88,0.00,CLR,,0.06,WeatherDisplay:10.37,2013-05-28 19:44:00,
2013-05-29 05:54:00,54.5,51.0,30.40,WSW,248,0.0,0.0,88,0.00,CLR,,0.06,WeatherDisplay:10.37,2013-05-28 19:54:00,
2013-05-29 05:59:00,54.3,50.8,30.40,WSW,248,0.0,0.0,88,0.00,CLR,,0.06,WeatherDisplay:10.37,2013-05-28 19:59:00,
2013-05-29 06:04:00,54.3,50.8,30.40,WSW,248,0.0,0.0,88,0.00,CLR,,0.06,WeatherDisplay:10.37,2013-05-28 20:04:00,
2013-05-29 06:14:00,54.3,50.8,30.40,SSW,205,0.0,0.0,88,0.00,CLR,,0.06,WeatherDisplay:10.37,2013-05-28 20:14:00,
2013-05-29 06:19:00,54.3,50.8,30.40,SE,141,0.0,1.0,88,0.00,CLR,,0.06,WeatherDisplay:10.37,2013-05-28 20:19:00,
2013-05-29 06:29:00,54.3,50.8,30.40,NNE,17,0.0,0.0,88,0.00,CLR,,0.06,WeatherDisplay:10.37,2013-05-28 20:29:00,
2013-05-29 06:34:00,54.1,50.7,30.40,North,351,0.0,0.0,88,0.00,CLR,,0.06,WeatherDisplay:10.37,2013-05-28 20:34:00,
2013-05-29 06:39:00,54.1,50.7,30.40,WNW,302,0.0,0.0,88,0.00,CLR,,0.06,WeatherDisplay:10.37,2013-05-28 20:39:00,
2013-05-29 06:44:00,54.3,50.8,30.40,West,277,0.0,0.0,88,0.00,CLR,,0.06,WeatherDisplay:10.37,2013-05-28 20:44:00,
2013-05-29 06:49:00,54.1,50.7,30.41,West,276,0.0,0.0,88,0.00,CLR,,0.06,WeatherDisplay:10.37,2013-05-28 20:49:00,
2013-05-29 06:54:00,54.3,50.8,30.41,West,269,0.0,0.0,88,0.00,CLR,,0.06,WeatherDisplay:10.37,2013-05-28 20:54:00,
2013-05-29 06:59:00,54.3,50.8,30.41,West,281,0.0,1.0,88,0.00,CLR,,0.06,WeatherDisplay:10.37,2013-05-28 20:59:00,
2013-05-29 07:04:00,54.3,51.1,30.41,NW,312,0.0,1.0,89,0.00,CLR,,0.06,WeatherDisplay:10.37,2013-05-28 21:04:00,
2013-05-29 07:09:00,54.3,51.1,30.41,NW,312,0.0,2.0,89,0.00,CLR,,0.06,WeatherDisplay:10.37,2013-05-28 21:09:00,
2013-05-29 07:19:00,54.5,51.3,30.42,NNW,331,0.0,2.0,89,0.00,CLR,,0.06,WeatherDisplay:10.37,2013-05-28 21:19:00,
2013-05-29 07:24:00,54.7,51.5,30.42,NNW,339,1.0,2.0,89,0.00,CLR,,0.06,WeatherDisplay:10.37,2013-05-28 21:24:00,
2013-05-29 07:29:00,54.7,51.5,30.42,NNW,338,0.0,0.0,89,0.00,CLR,,0.06,WeatherDisplay:10.37,2013-05-28 21:29:00,
2013-05-29 07:34:00,54.7,51.5,30.42,NNW,327,0.0,2.0,89,0.00,CLR,,0.06,WeatherDisplay:10.37,2013-05-28 21:34:00,
2013-05-29 07:39:00,54.7,51.5,30.42,NNW,327,0.0,2.0,89,0.00,CLR,,0.06,WeatherDisplay:10.37,2013-05-28 21:39:00,
2013-05-29 07:44:00,54.7,51.5,30.42,NNW,347,1.0,3.0,89,0.00,CLR,,0.06,WeatherDisplay:10.37,2013-05-28 21:44:00,
2013-05-29 07:49:00,54.7,51.8,30.42,North,352,1.0,2.0,90,0.00,CLR,,0.06,WeatherDisplay:10.37,2013-05-28 21:49:00,
2013-05-29 07:54:00,54.9,52.0,30.42,North,356,1.0,2.0,90,0.00,CLR,,0.06,WeatherDisplay:10.37,2013-05-28 21:54:00,
2013-05-29 07:59:00,54.9,52.0,30.42,North,358,1.0,2.0,90,0.00,CLR,,0.06,WeatherDisplay:10.37,2013-05-28 21:59:00,
2013-05-29 08:04:00,55.0,52.1,30.43,North,360,0.0,2.0,90,0.00,CLR,,0.06,WeatherDisplay:10.37,2013-05-28 22:04:00,
2013-05-29 08:09:00,55.0,52.2,30.43,NNE,12,1.0,3.0,90,0.00,CLR,,0.06,WeatherDisplay:10.37,2013-05-28 22:09:00,
2013-05-29 08:14:00,55.2,52.3,30.43,North,11,0.0,2.0,90,0.00,CLR,,0.06,WeatherDisplay:10.37,2013-05-28 22:14:00,
2013-05-29 08:19:00,55.2,52.3,30.43,North,7,0.0,1.0,90,0.00,CLR,,0.06,WeatherDisplay:10.37,2013-05-28 22:19:00,
2013-05-29 08:24:00,55.2,52.3,30.43,North,5,0.0,0.0,90,0.00,CLR,,0.06,WeatherDisplay:10.37,2013-05-28 22:24:00,
2013-05-29 08:29:00,55.2,52.3,30.43,North,5,0.0,1.0,90,0.00,CLR,,0.06,WeatherDisplay:10.37,2013-05-28 22:29:00,
2013-05-29 08:34:00,55.5,52.6,30.43,North,2,0.0,1.0,90,0.00,CLR,,0.06,WeatherDisplay:10.37,2013-05-28 22:34:00,
2013-05-29 08:39:00,55.6,52.7,30.43,NE,48,0.0,1.0,90,0.00,CLR,,0.06,WeatherDisplay:10.37,2013-05-28 22:39:00,
2013-05-29 08:49:00,55.9,53.0,30.43,ESE,112,0.0,1.0,90,0.00,CLR,,0.06,WeatherDisplay:10.37,2013-05-28 22:49:00,
2013-05-29 08:54:00,55.9,53.0,30.44,SE,132,0.0,0.0,90,0.00,CLR,,0.06,WeatherDisplay:10.37,2013-05-28 22:54:00,
2013-05-29 08:59:00,56.1,53.2,30.44,SSE,148,0.0,0.0,90,0.00,RA,,0.00,WeatherDisplay:10.37,2013-05-28 22:59:00,
2013-05-29 09:04:00,56.3,53.4,30.44,SSE,165,0.0,1.0,90,0.00,RA,,0.00,WeatherDisplay:10.37,2013-05-28 23:04:00,
2013-05-29 09:09:00,56.6,53.7,30.44,SSW,205,0.0,2.0,90,0.00,CLR,,0.00,WeatherDisplay:10.37,2013-05-28 23:09:00,
2013-05-29 09:14:00,56.8,54.2,30.44,WNW,303,1.0,4.0,91,0.00,CLR,,0.00,WeatherDisplay:10.37,2013-05-28 23:14:00,
2013-05-29 09:19:00,57.0,54.4,30.44,NW,305,2.0,4.0,91,0.00,CLR,,0.00,WeatherDisplay:10.37,2013-05-28 23:19:00,
2013-05-29 09:24:00,57.0,54.4,30.44,NW,308,3.0,4.0,91,0.00,CLR,,0.00,WeatherDisplay:10.37,2013-05-28 23:24:00,
2013-05-29 09:29:00,57.4,54.5,30.44,NW,311,0.0,5.0,90,0.00,CLR,,0.00,WeatherDisplay:10.37,2013-05-28 23:29:00,
2013-05-29 09:34:00,57.4,54.5,30.44,NW,313,1.0,2.0,90,0.00,CLR,,0.00,WeatherDisplay:10.37,2013-05-28 23:34:00,
2013-05-29 09:39:00,57.7,54.8,30.44,NNW,334,3.0,6.0,90,0.00,CLR,,0.00,WeatherDisplay:10.37,2013-05-28 23:39:00,
2013-05-29 09:44:00,58.3,55.4,30.44,North,352,2.0,6.0,90,0.00,CLR,,0.00,WeatherDisplay:10.37,2013-05-28 23:44:00,
2013-05-29 09:49:00,58.8,55.6,30.44,NNW,342,1.0,6.0,89,0.00,CLR,,0.00,WeatherDisplay:10.37,2013-05-28 23:49:00,
2013-05-29 09:54:00,58.8,55.6,30.44,NNW,335,1.0,5.0,89,0.00,CLR,,0.00,WeatherDisplay:10.37,2013-05-28 23:54:00,
2013-05-29 09:59:00,59.0,55.8,30.44,NNW,337,5.0,7.0,89,0.00,CLR,,0.00,WeatherDisplay:10.37,2013-05-28 23:59:00,
2013-05-29 10:04:00,59.4,55.8,30.44,NNW,336,2.0,6.0,88,0.00,CLR,,0.00,WeatherDisplay:10.37,2013-05-29 00:04:00,
2013-05-29 10:09:00,59.7,55.8,30.44,NNW,348,2.0,6.0,87,0.00,CLR,,0.00,WeatherDisplay:10.37,2013-05-29 00:09:00,
2013-05-29 10:14:00,59.9,55.7,30.44,North,353,2.0,7.0,86,0.00,CLR,,0.00,WeatherDisplay:10.37,2013-05-29 00:14:00,
2013-05-29 10:19:00,60.1,55.6,30.44,NNW,347,2.0,4.0,85,0.00,CLR,,0.00,WeatherDisplay:10.37,2013-05-29 00:19:00,
2013-05-29 10:24:00,60.4,55.9,30.43,NNW,348,1.0,4.0,85,0.00,CLR,,0.00,WeatherDisplay:10.37,2013-05-29 00:24:00,
2013-05-29 10:29:00,60.5,55.7,30.43,NNW,344,2.0,8.0,84,0.00,CLR,,0.00,WeatherDisplay:10.37,2013-05-29 00:29:00,
2013-05-29 10:34:00,60.6,55.4,30.43,NNW,338,3.0,8.0,83,0.00,CLR,,0.00,WeatherDisplay:10.37,2013-05-29 00:34:00,
2013-05-29 10:39:00,60.6,55.4,30.43,North,352,3.0,7.0,83,0.00,CLR,,0.00,WeatherDisplay:10.37,2013-05-29 00:39:00,
2013-05-29 10:44:00,60.7,55.1,30.43,North,353,2.0,9.0,82,0.00,CLR,,0.00,WeatherDisplay:10.37,2013-05-29 00:44:00,
2013-05-29 10:49:00,61.0,55.4,30.43,NNW,347,3.0,8.0,82,0.00,CLR,,0.00,WeatherDisplay:10.37,2013-05-29 00:49:00,
2013-05-29 10:54:00,61.0,55.5,30.43,NNW,335,2.0,8.0,82,0.00,CLR,,0.00,WeatherDisplay:10.37,2013-05-29 00:54:00,
2013-05-29 10:59:00,61.3,55.4,30.43,North,352,2.0,8.0,81,0.00,CLR,,0.00,WeatherDisplay:10.37,2013-05-29 00:59:00,
2013-05-29 11:04:00,61.3,55.5,30.43,North,360,2.0,7.0,81,0.00,CLR,,0.00,WeatherDisplay:10.37,2013-05-29 01:04:00,
2013-05-29 11:09:00,61.5,55.3,30.42,North,1,2.0,7.0,80,0.00,CLR,,0.00,WeatherDisplay:10.37,2013-05-29 01:09:00,
2013-05-29 11:14:00,61.4,55.5,30.42,NNW,343,2.0,6.0,81,0.00,CLR,,0.00,WeatherDisplay:10.37,2013-05-29 01:14:00,
2013-05-29 11:19:00,61.5,55.6,30.42,NW,322,2.0,4.0,81,0.00,CLR,,0.00,WeatherDisplay:10.37,2013-05-29 01:19:00,
2013-05-29 11:24:00,61.7,55.8,30.42,NW,314,1.0,6.0,81,0.00,CLR,,0.00,WeatherDisplay:10.37,2013-05-29 01:24:00,
2013-05-29 11:29:00,61.7,55.8,30.42,NW,311,1.0,4.0,81,0.00,CLR,,0.00,WeatherDisplay:10.37,2013-05-29 01:29:00,
2013-05-29 11:34:00,61.9,56.0,30.41,NW,318,2.0,6.0,81,0.00,CLR,,0.00,WeatherDisplay:10.37,2013-05-29 01:34:00,
2013-05-29 11:39:00,62.2,56.3,30.41,NNW,328,3.0,6.0,81,0.00,CLR,,0.00,WeatherDisplay:10.37,2013-05-29 01:39:00,
2013-05-29 11:44:00,62.4,56.2,30.41,NNW,335,1.0,6.0,80,0.00,CLR,,0.00,WeatherDisplay:10.37,2013-05-29 01:44:00,
2013-05-29 11:49:00,62.6,56.3,30.40,NNW,337,1.0,5.0,80,0.00,CLR,,0.00,WeatherDisplay:10.37,2013-05-29 01:49:00,
2013-05-29 11:54:00,63.1,56.5,30.40,North,355,1.0,4.0,79,0.00,CLR,,0.00,WeatherDisplay:10.37,2013-05-29 01:54:00,
2013-05-29 11:59:00,63.1,56.5,30.40,NNW,336,3.0,5.0,79,0.00,CLR,,0.00,WeatherDisplay:10.37,2013-05-29 01:59:00,
2013-05-29 12:04:00,63.0,56.1,30.40,NW,319,2.0,4.0,78,0.00,CLR,,0.00,WeatherDisplay:10.37,2013-05-29 02:04:00,
2013-05-29 12:09:00,63.1,56.2,30.40,NNW,342,1.0,8.0,78,0.00,CLR,,0.00,WeatherDisplay:10.37,2013-05-29 02:09:00,
2013-05-29 12:14:00,63.3,56.0,30.40,North,3,2.0,8.0,77,0.00,CLR,,0.00,WeatherDisplay:10.37,2013-05-29 02:14:00,
2013-05-29 12:19:00,63.4,56.4,30.39,North,353,2.0,5.0,78,0.00,CLR,,0.00,WeatherDisplay:10.37,2013-05-29 02:19:00,
2013-05-29 12:29:00,63.7,56.7,30.39,NW,308,2.0,5.0,78,0.00,CLR,,0.00,WeatherDisplay:10.37,2013-05-29 02:29:00,
2013-05-29 12:34:00,63.9,56.9,30.38,NNW,345,5.0,8.0,78,0.00,CLR,,0.00,WeatherDisplay:10.37,2013-05-29 02:34:00,
2013-05-29 12:39:00,64.0,56.7,30.38,North,5,3.0,8.0,77,0.00,CLR,,0.00,WeatherDisplay:10.37,2013-05-29 02:39:00,
2013-05-29 12:44:00,64.2,56.9,30.38,NNW,348,1.0,6.0,77,0.00,CLR,,0.00,WeatherDisplay:10.37,2013-05-29 02:44:00,
2013-05-29 12:49:00,64.2,56.9,30.38,NNW,340,0.0,5.0,77,0.00,CLR,,0.00,WeatherDisplay:10.37,2013-05-29 02:49:00,
2013-05-29 12:54:00,64.3,56.6,30.38,NNW,332,5.0,6.0,76,0.00,CLR,,0.00,WeatherDisplay:10.37,2013-05-29 02:54:00,
2013-05-29 12:59:00,64.3,56.5,30.38,NNW,334,2.0,5.0,76,0.00,CLR,,0.00,WeatherDisplay:10.37,2013-05-29 02:59:00,
2013-05-29 13:04:00,64.2,56.1,30.38,North,6,3.0,5.0,75,0.00,CLR,,0.00,WeatherDisplay:10.37,2013-05-29 03:04:00,
2013-05-29 13:09:00,64.2,56.1,30.37,North,358,3.0,6.0,75,0.00,CLR,,0.00,WeatherDisplay:10.37,2013-05-29 03:09:00,
2013-05-29 13:14:00,64.5,56.4,30.37,NNW,339,1.0,6.0,75,0.00,CLR,,0.00,WeatherDisplay:10.37,2013-05-29 03:14:00,
2013-05-29 13:19:00,64.6,56.5,30.37,NNW,329,1.0,3.0,75,0.00,CLR,,0.00,WeatherDisplay:10.37,2013-05-29 03:19:00,
2013-05-29 13:24:00,64.6,56.5,30.36,NNW,330,0.0,4.0,75,0.00,CLR,,0.00,WeatherDisplay:10.37,2013-05-29 03:24:00,
2013-05-29 13:29:00,64.8,56.6,30.36,NNW,344,2.0,7.0,75,0.00,CLR,,0.00,WeatherDisplay:10.37,2013-05-29 03:29:00,
2013-05-29 13:34:00,64.9,56.5,30.36,North,352,5.0,7.0,74,0.00,CLR,,0.00,WeatherDisplay:10.37,2013-05-29 03:34:00,
2013-05-29 13:39:00,64.9,56.1,30.36,North,354,1.0,7.0,73,0.00,CLR,,0.00,WeatherDisplay:10.37,2013-05-29 03:39:00,
2013-05-29 13:44:00,64.9,56.1,30.36,North,355,0.0,5.0,73,0.00,CLR,,0.00,WeatherDisplay:10.37,2013-05-29 03:44:00,
2013-05-29 13:49:00,64.9,56.5,30.35,NNW,339,2.0,6.0,74,0.00,CLR,,0.00,WeatherDisplay:10.37,2013-05-29 03:49:00,
2013-05-29 13:59:00,64.9,56.5,30.35,NNW,334,1.0,5.0,74,0.00,CLR,,0.00,WeatherDisplay:10.37,2013-05-29 03:59:00,
2013-05-29 14:04:00,65.1,56.6,30.35,NW,324,3.0,7.0,74,0.00,CLR,,0.00,WeatherDisplay:10.37,2013-05-29 04:04:00,
2013-05-29 14:09:00,65.1,56.6,30.35,NNW,340,2.0,5.0,74,0.00,CLR,,0.00,WeatherDisplay:10.37,2013-05-29 04:09:00,
2013-05-29 14:14:00,65.3,56.0,30.35,NNE,18,1.0,4.0,72,0.00,CLR,,0.00,WeatherDisplay:10.37,2013-05-29 04:14:00,
2013-05-29 14:19:00,65.3,56.0,30.35,NNE,13,2.0,4.0,72,0.00,CLR,,0.00,WeatherDisplay:10.37,2013-05-29 04:19:00,
2013-05-29 14:24:00,65.3,56.0,30.35,NNW,340,1.0,5.0,72,0.00,CLR,,0.00,WeatherDisplay:10.37,2013-05-29 04:24:00,
2013-05-29 14:29:00,65.3,56.0,30.35,NNW,335,3.0,6.0,72,0.00,CLR,,0.00,WeatherDisplay:10.37,2013-05-29 04:29:00,
2013-05-29 14:34:00,65.4,55.8,30.35,NNW,347,1.0,5.0,71,0.00,CLR,,0.00,WeatherDisplay:10.37,2013-05-29 04:34:00,
2013-05-29 14:39:00,65.3,55.7,30.35,North,349,1.0,3.0,71,0.00,CLR,,0.00,WeatherDisplay:10.37,2013-05-29 04:39:00,
2013-05-29 14:44:00,65.3,56.0,30.35,NNW,348,2.0,4.0,72,0.00,CLR,,0.00,WeatherDisplay:10.37,2013-05-29 04:44:00,
2013-05-29 14:49:00,65.3,56.4,30.35,NNW,343,1.0,4.0,73,0.00,CLR,,0.00,WeatherDisplay:10.37,2013-05-29 04:49:00,
2013-05-29 14:54:00,65.2,56.7,30.35,NW,315,1.0,3.0,74,0.00,CLR,,0.00,WeatherDisplay:10.37,2013-05-29 04:54:00,
2013-05-29 14:59:00,65.3,56.8,30.35,WNW,290,2.0,6.0,74,0.00,CLR,,0.00,WeatherDisplay:10.37,2013-05-29 04:59:00,
2013-05-29 15:04:00,65.1,56.6,30.35,WNW,292,1.0,5.0,74,0.00,CLR,,0.00,WeatherDisplay:10.37,2013-05-29 05:04:00,
2013-05-29 15:09:00,65.1,56.6,30.35,NW,305,1.0,2.0,74,0.00,CLR,,0.00,WeatherDisplay:10.37,2013-05-29 05:09:00,
2013-05-29 15:14:00,65.3,56.8,30.35,NNW,328,2.0,4.0,74,0.00,CLR,,0.00,WeatherDisplay:10.37,2013-05-29 05:14:00,
2013-05-29 15:19:00,65.3,56.8,30.35,North,349,1.0,5.0,74,0.00,CLR,,0.00,WeatherDisplay:10.37,2013-05-29 05:19:00,
2013-05-29 15:24:00,65.5,56.6,30.35,North,359,2.0,4.0,73,0.00,CLR,,0.00,WeatherDisplay:10.37,2013-05-29 05:24:00,
2013-05-29 15:29:00,65.6,56.7,30.34,NNW,345,2.0,3.0,73,0.00,CLR,,0.00,WeatherDisplay:10.37,2013-05-29 05:29:00,
2013-05-29 15:34:00,65.8,56.5,30.34,North,359,2.0,7.0,72,0.00,CLR,,0.00,WeatherDisplay:10.37,2013-05-29 05:34:00,
2013-05-29 15:39:00,65.8,56.6,30.34,North,4,1.0,4.0,72,0.00,CLR,,0.00,WeatherDisplay:10.37,2013-05-29 05:39:00,
2013-05-29 15:44:00,65.7,56.0,30.34,North,7,1.0,5.0,71,0.00,CLR,,0.00,WeatherDisplay:10.37,2013-05-29 05:44:00,
2013-05-29 15:49:00,65.6,55.9,30.34,North,4,2.0,4.0,71,0.00,CLR,,0.00,WeatherDisplay:10.37,2013-05-29 05:49:00,
2013-05-29 15:54:00,65.5,55.8,30.34,North,355,0.0,3.0,71,0.00,CLR,,0.00,WeatherDisplay:10.37,2013-05-29 05:54:00,
2013-05-29 15:59:00,65.5,55.8,30.34,North,360,2.0,4.0,71,0.00,CLR,,0.00,WeatherDisplay:10.37,2013-05-29 05:59:00,
2013-05-29 16:04:00,65.3,55.7,30.34,North,358,0.0,4.0,71,0.00,CLR,,0.00,WeatherDisplay:10.37,2013-05-29 06:04:00,
2013-05-29 16:09:00,65.1,55.9,30.34,North,356,1.0,3.0,72,0.00,CLR,,0.00,WeatherDisplay:10.37,2013-05-29 06:09:00,
2013-05-29 16:14:00,65.1,55.5,30.34,North,6,3.0,6.0,71,0.00,CLR,,0.00,WeatherDisplay:10.37,2013-05-29 06:14:00,
2013-05-29 16:19:00,65.1,55.4,30.34,North,1,2.0,3.0,71,0.00,CLR,,0.00,WeatherDisplay:10.37,2013-05-29 06:19:00,
2013-05-29 16:24:00,64.9,55.7,30.34,North,357,2.0,3.0,72,0.00,CLR,,0.00,WeatherDisplay:10.37,2013-05-29 06:24:00,
2013-05-29 16:29:00,64.8,55.9,30.34,North,350,0.0,2.0,73,0.00,CLR,,0.00,WeatherDisplay:10.37,2013-05-29 06:29:00,
2013-05-29 16:34:00,64.4,55.6,30.34,NNW,335,0.0,2.0,73,0.00,CLR,,0.00,WeatherDisplay:10.37,2013-05-29 06:34:00,
2013-05-29 16:39:00,64.2,55.4,30.34,NNW,348,0.0,0.0,73,0.00,CLR,,0.00,WeatherDisplay:10.37,2013-05-29 06:39:00,
2013-05-29 16:44:00,64.0,55.6,30.34,North,5,0.0,0.0,74,0.00,CLR,,0.00,WeatherDisplay:10.37,2013-05-29 06:44:00,
2013-05-29 16:49:00,63.7,56.0,30.34,NNE,21,0.0,0.0,76,0.00,CLR,,0.00,WeatherDisplay:10.37,2013-05-29 06:49:00,
2013-05-29 16:54:00,63.3,55.6,30.34,NNE,16,0.0,1.0,76,0.00,CLR,,0.00,WeatherDisplay:10.37,2013-05-29 06:54:00,
2013-05-29 16:59:00,63.1,55.8,30.34,NNW,345,0.0,1.0,77,0.00,CLR,,0.00,WeatherDisplay:10.37,2013-05-29 06:59:00,
2013-05-29 17:04:00,62.8,55.5,30.34,North,358,0.0,0.0,77,0.00,CLR,,0.00,WeatherDisplay:10.37,2013-05-29 07:04:00,
2013-05-29 17:09:00,62.5,55.5,30.34,North,11,0.0,0.0,78,0.00,CLR,,0.00,WeatherDisplay:10.37,2013-05-29 07:09:00,
2013-05-29 17:14:00,62.4,55.4,30.34,North,2,0.0,0.0,78,0.00,CLR,,0.00,WeatherDisplay:10.37,2013-05-29 07:14:00,
2013-05-29 17:19:00,62.0,55.4,30.34,North,356,0.0,0.0,79,0.00,CLR,,0.00,WeatherDisplay:10.37,2013-05-29 07:19:00,
2013-05-29 17:29:00,61.5,55.3,30.35,WSW,249,0.0,0.0,80,0.00,CLR,,0.00,WeatherDisplay:10.37,2013-05-29 07:29:00,
2013-05-29 17:34:00,61.5,55.6,30.35,NNW,327,0.0,1.0,81,0.00,CLR,,0.00,WeatherDisplay:10.37,2013-05-29 07:34:00,
2013-05-29 17:39:00,61.3,55.5,30.35,NNW,335,0.0,1.0,81,0.00,CLR,,0.00,WeatherDisplay:10.37,2013-05-29 07:39:00,
2013-05-29 17:44:00,61.0,55.1,30.35,SSE,153,0.0,0.0,81,0.00,CLR,,0.00,WeatherDisplay:10.37,2013-05-29 07:44:00,
2013-05-29 17:49:00,60.7,54.8,30.35,SSE,152,0.0,0.0,81,0.00,CLR,,0.00,WeatherDisplay:10.37,2013-05-29 07:49:00,
2013-05-29 17:54:00,60.6,54.8,30.34,South,180,0.0,0.0,81,0.00,CLR,,0.00,WeatherDisplay:10.37,2013-05-29 07:54:00,
2013-05-29 17:59:00,60.5,55.0,30.35,NW,311,0.0,0.0,82,0.00,CLR,,0.00,WeatherDisplay:10.37,2013-05-29 07:59:00,
2013-05-29 18:04:00,60.4,54.9,30.35,North,1,0.0,0.0,82,0.00,CLR,,0.00,WeatherDisplay:10.37,2013-05-29 08:04:00,
2013-05-29 18:09:00,60.2,54.7,30.35,NNE,31,0.0,0.0,82,0.00,CLR,,0.00,WeatherDisplay:10.37,2013-05-29 08:09:00,
2013-05-29 18:14:00,60.1,54.6,30.35,ENE,60,0.0,0.0,82,0.00,CLR,,0.00,WeatherDisplay:10.37,2013-05-29 08:14:00,
2013-05-29 18:19:00,60.1,54.6,30.35,NE,36,0.0,0.0,82,0.00,CLR,,0.00,WeatherDisplay:10.37,2013-05-29 08:19:00,
2013-05-29 18:24:00,59.9,54.4,30.35,North,7,0.0,0.0,82,0.00,CLR,,0.00,WeatherDisplay:10.37,2013-05-29 08:24:00,
2013-05-29 18:29:00,59.5,54.0,30.35,NW,322,0.0,0.0,82,0.00,CLR,,0.00,WeatherDisplay:10.37,2013-05-29 08:29:00,
2013-05-29 18:34:00,59.4,53.9,30.35,SW,230,0.0,0.0,82,0.00,CLR,,0.00,WeatherDisplay:10.37,2013-05-29 08:34:00,
2013-05-29 18:39:00,59.2,53.7,30.35,WSW,245,0.0,0.0,82,0.00,CLR,,0.00,WeatherDisplay:10.37,2013-05-29 08:39:00,
2013-05-29 18:44:00,59.2,53.7,30.35,WNW,286,0.0,0.0,82,0.00,CLR,,0.00,WeatherDisplay:10.37,2013-05-29 08:44:00,
2013-05-29 18:49:00,58.8,53.3,30.35,NNW,332,0.0,0.0,82,0.00,CLR,,0.00,WeatherDisplay:10.37,2013-05-29 08:49:00,
2013-05-29 18:54:00,58.8,53.3,30.35,NW,326,0.0,0.0,82,0.00,CLR,,0.00,WeatherDisplay:10.37,2013-05-29 08:54:00,
2013-05-29 19:04:00,58.7,53.2,30.35,SW,225,0.0,0.0,82,0.00,CLR,,0.00,WeatherDisplay:10.37,2013-05-29 09:04:00,
2013-05-29 19:09:00,58.5,53.0,30.35,WSW,251,0.0,0.0,82,0.00,CLR,,0.00,WeatherDisplay:10.37,2013-05-29 09:09:00,
2013-05-29 19:14:00,58.5,53.0,30.36,NW,310,0.0,0.0,82,0.00,CLR,,0.00,WeatherDisplay:10.37,2013-05-29 09:14:00,
2013-05-29 19:19:00,58.5,53.3,30.36,WNW,289,0.0,0.0,83,0.00,CLR,,0.00,WeatherDisplay:10.37,2013-05-29 09:19:00,
2013-05-29 19:24:00,58.4,53.2,30.35,WNW,292,0.0,0.0,83,0.00,CLR,,0.00,WeatherDisplay:10.37,2013-05-29 09:24:00,
2013-05-29 19:29:00,58.3,53.1,30.36,NNW,339,0.0,0.0,83,0.00,CLR,,0.00,WeatherDisplay:10.37,2013-05-29 09:29:00,
2013-05-29 19:34:00,58.1,53.0,30.35,North,7,0.0,0.0,83,0.00,CLR,,0.00,WeatherDisplay:10.37,2013-05-29 09:34:00,
2013-05-29 19:39:00,57.9,52.8,30.35,NE,50,0.0,0.0,83,0.00,CLR,,0.00,WeatherDisplay:10.37,2013-05-29 09:39:00,
2013-05-29 19:44:00,57.9,52.8,30.36,ENE,68,0.0,0.0,83,0.00,CLR,,0.00,WeatherDisplay:10.37,2013-05-29 09:44:00,
2013-05-29 19:49:00,57.7,52.3,30.35,ENE,61,0.0,0.0,82,0.00,CLR,,0.00,WeatherDisplay:10.37,2013-05-29 09:49:00,
2013-05-29 19:54:00,57.6,52.1,30.36,WNW,287,0.0,0.0,82,0.00,CLR,,0.00,WeatherDisplay:10.37,2013-05-29 09:54:00,
2013-05-29 19:59:00,57.4,51.9,30.35,West,271,0.0,0.0,82,0.00,CLR,,0.00,WeatherDisplay:10.37,2013-05-29 09:59:00,
2013-05-29 20:04:00,57.0,51.6,30.35,WNW,288,0.0,0.0,82,0.00,CLR,,0.00,WeatherDisplay:10.37,2013-05-29 10:04:00,
2013-05-29 20:09:00,57.0,51.6,30.35,NW,312,0.0,0.0,82,0.00,CLR,,0.00,WeatherDisplay:10.37,2013-05-29 10:09:00,
2013-05-29 20:14:00,57.0,51.6,30.36,WNW,292,0.0,0.0,82,0.00,CLR,,0.00,WeatherDisplay:10.37,2013-05-29 10:14:00,
2013-05-29 20:19:00,56.8,51.4,30.36,West,271,0.0,0.0,82,0.00,CLR,,0.00,WeatherDisplay:10.37,2013-05-29 10:19:00,
2013-05-29 20:24:00,56.7,51.2,30.36,West,269,0.0,1.0,82,0.00,CLR,,0.00,WeatherDisplay:10.37,2013-05-29 10:24:00,
2013-05-29 20:29:00,56.8,51.7,30.36,West,262,0.0,0.0,83,0.00,CLR,,0.00,WeatherDisplay:10.37,2013-05-29 10:29:00,
2013-05-29 20:34:00,56.8,51.7,30.36,WSW,250,0.0,0.0,83,0.00,CLR,,0.00,WeatherDisplay:10.37,2013-05-29 10:34:00,
2013-05-29 20:39:00,56.8,51.7,30.36,WSW,244,0.0,1.0,83,0.00,CLR,,0.00,WeatherDisplay:10.37,2013-05-29 10:39:00,
2013-05-29 20:44:00,56.8,51.7,30.36,West,263,0.0,1.0,83,0.00,CLR,,0.00,WeatherDisplay:10.37,2013-05-29 10:44:00,
2013-05-29 20:49:00,56.8,51.7,30.36,NNW,340,0.0,1.0,83,0.00,CLR,,0.00,WeatherDisplay:10.37,2013-05-29 10:49:00,
2013-05-29 20:54:00,56.6,51.5,30.36,West,269,1.0,2.0,83,0.00,CLR,,0.00,WeatherDisplay:10.37,2013-05-29 10:54:00,
2013-05-29 20:59:00,56.5,51.4,30.37,WSW,241,0.0,1.0,83,0.00,CLR,,0.00,WeatherDisplay:10.37,2013-05-29 10:59:00,
2013-05-29 21:04:00,56.2,51.1,30.37,WSW,256,0.0,0.0,83,0.00,CLR,,0.00,WeatherDisplay:10.37,2013-05-29 11:04:00,
2013-05-29 21:09:00,56.3,51.2,30.37,West,268,0.0,0.0,83,0.00,CLR,,0.00,WeatherDisplay:10.37,2013-05-29 11:09:00,
2013-05-29 21:14:00,56.3,51.2,30.37,West,270,0.0,0.0,83,0.00,CLR,,0.00,WeatherDisplay:10.37,2013-05-29 11:14:00,
2013-05-29 21:19:00,56.1,51.0,30.37,NNW,335,0.0,0.0,83,0.00,CLR,,0.00,WeatherDisplay:10.37,2013-05-29 11:19:00,
2013-05-29 21:24:00,55.9,50.9,30.37,NNE,23,0.0,0.0,83,0.00,CLR,,0.00,WeatherDisplay:10.37,2013-05-29 11:24:00,
2013-05-29 21:29:00,55.9,50.5,30.37,NE,48,0.0,0.0,82,0.00,CLR,,0.00,WeatherDisplay:10.37,2013-05-29 11:29:00,
2013-05-29 21:34:00,55.8,50.3,30.37,ENE,76,0.0,0.0,82,0.00,CLR,,0.00,WeatherDisplay:10.37,2013-05-29 11:34:00,
2013-05-29 21:39:00,55.6,50.2,30.37,NE,55,0.0,0.0,82,0.00,CLR,,0.00,WeatherDisplay:10.37,2013-05-29 11:39:00,
2013-05-29 21:44:00,55.6,50.2,30.37,North,352,0.0,0.0,82,0.00,CLR,,0.00,WeatherDisplay:10.37,2013-05-29 11:44:00,
2013-05-29 21:49:00,55.5,50.1,30.37,North,9,0.0,0.0,82,0.00,CLR,,0.00,WeatherDisplay:10.37,2013-05-29 11:49:00,
2013-05-29 21:54:00,55.2,49.8,30.37,North,7,0.0,0.0,82,0.00,CLR,,0.00,WeatherDisplay:10.37,2013-05-29 11:54:00,
2013-05-29 21:59:00,54.9,49.8,30.37,NNW,341,0.0,0.0,83,0.00,CLR,,0.00,WeatherDisplay:10.37,2013-05-29 11:59:00,
2013-05-29 22:04:00,54.9,49.8,30.37,NW,313,0.0,0.0,83,0.02,RA,,0.02,WeatherDisplay:10.37,2013-05-29 12:04:00,
2013-05-29 22:09:00,54.9,49.8,30.37,West,263,0.0,0.0,83,0.00,RA,,0.02,WeatherDisplay:10.37,2013-05-29 12:09:00,
2013-05-29 22:19:00,54.8,49.4,30.36,West,267,0.0,0.0,82,0.00,CLR,,0.02,WeatherDisplay:10.37,2013-05-29 12:19:00,
2013-05-29 22:24:00,54.7,49.3,30.36,West,270,0.0,0.0,82,0.00,CLR,,0.02,WeatherDisplay:10.37,2013-05-29 12:24:00,
2013-05-29 22:29:00,54.5,49.1,30.36,West,270,0.0,0.0,82,0.00,CLR,,0.02,WeatherDisplay:10.37,2013-05-29 12:29:00,
2013-05-29 22:34:00,54.3,48.9,30.36,West,279,0.0,0.0,82,0.00,CLR,,0.02,WeatherDisplay:10.37,2013-05-29 12:34:00,
2013-05-29 22:39:00,54.2,48.8,30.35,West,277,0.0,0.0,82,0.00,CLR,,0.02,WeatherDisplay:10.37,2013-05-29 12:39:00,
2013-05-29 22:44:00,54.1,48.8,30.36,West,270,0.0,0.0,82,0.00,CLR,,0.02,WeatherDisplay:10.37,2013-05-29 12:44:00,
2013-05-29 22:49:00,54.1,48.8,30.35,West,270,0.0,0.0,82,0.00,CLR,,0.02,WeatherDisplay:10.37,2013-05-29 12:49:00,
2013-05-29 22:54:00,54.3,48.9,30.35,West,270,0.0,0.0,82,0.00,CLR,,0.02,WeatherDisplay:10.37,2013-05-29 12:54:00,
2013-05-29 22:59:00,54.3,48.9,30.35,NNW,341,0.0,0.0,82,0.00,CLR,,0.02,WeatherDisplay:10.37,2013-05-29 12:59:00,
2013-05-29 23:04:00,54.1,48.8,30.35,ENE,64,0.0,0.0,82,0.00,CLR,,0.02,WeatherDisplay:10.37,2013-05-29 13:04:00,
2013-05-29 23:09:00,54.1,48.8,30.35,ENE,68,0.0,0.0,82,0.00,CLR,,0.02,WeatherDisplay:10.37,2013-05-29 13:09:00,
2013-05-29 23:14:00,53.9,48.5,30.35,ENE,73,0.0,0.0,82,0.00,CLR,,0.02,WeatherDisplay:10.37,2013-05-29 13:14:00,
2013-05-29 23:19:00,53.8,48.4,30.35,East,92,0.0,0.0,82,0.00,CLR,,0.02,WeatherDisplay:10.37,2013-05-29 13:19:00,
2013-05-29 23:24:00,53.4,48.1,30.35,ESE,109,0.0,0.0,82,0.00,CLR,,0.02,WeatherDisplay:10.37,2013-05-29 13:24:00,
2013-05-29 23:29:00,53.4,48.1,30.35,ESE,111,0.0,0.0,82,0.00,CLR,,0.02,WeatherDisplay:10.37,2013-05-29 13:29:00,
2013-05-29 23:34:00,53.4,48.1,30.35,SE,130,0.0,0.0,82,0.00,CLR,,0.02,WeatherDisplay:10.37,2013-05-29 13:34:00,
2013-05-29 23:39:00,53.4,48.1,30.35,SSE,154,0.0,0.0,82,0.00,CLR,,0.02,WeatherDisplay:10.37,2013-05-29 13:39:00,
2013-05-29 23:49:00,53.2,47.9,30.34,SSE,158,0.0,0.0,82,0.00,CLR,,0.02,WeatherDisplay:10.37,2013-05-29 13:49:00,
2013-05-29 23:59:00,52.9,47.5,30.34,SSE,158,0.0,0.0,82,0.00,CLR,,0.02,WeatherDisplay:10.37,2013-05-29 13:59:00,